Date String (YYYY-MM-DD hh:mm:ss) UTC,Instrument flags,Ambient pressure (hPa),Sample flow (lpm),Bypass flow (lpm),Sample temperature (°C),Ambient temperature (°C),ASC tube jacket temperature (°C),LED temperature (°C),Box temperature (°C),Sample RH (%),Span deviation,Mass concentration (μg/m³),Mass concentration (μg/m³),Mass concentration (μg/m³)
DateTimeUTC,F1_M11,P_M11,Q1_M11,Q2_M11,T1_M11,T2_M11,T3_M11,T4_M11,T5_M11,U1_M11,ZSPAN_M11,X0_M11,X2_M11,X1_M11
2022-05-01 07:00:00,,0826.5,5.00,0.00,28.1,27.1,00.0,37.0,29.9,09.7,0000.0,0017.82,0004.75,0003.44
2022-05-01 07:01:00,,0826.5,4.98,0.00,28.1,27.1,00.0,37.0,29.9,09.7,0000.0,0018.35,0004.75,0003.43
2022-05-01 07:02:00,,0826.5,5.01,0.00,28.1,27.1,00.0,37.0,29.9,09.7,0000.0,0018.28,0004.78,0003.44
2022-05-01 07:03:00,,0826.5,4.99,0.00,28.1,27.1,00.0,37.0,29.9,09.7,0000.0,0016.08,0004.83,0003.44
2022-05-01 07:04:00,,0826.5,5.00,0.00,28.1,27.1,00.0,37.0,29.9,09.7,0000.0,0014.49,0004.81,0003.45
2022-05-01 07:05:00,,0826.5,5.01,0.00,28.1,27.1,00.0,37.0,29.9,09.7,0000.0,0015.42,0004.80,0003.45
2022-05-01 07:06:00,,0826.5,5.00,0.00,28.1,27.1,00.0,37.0,29.8,09.7,0000.0,0015.06,0004.76,0003.45
2022-05-01 07:07:00,,0826.5,4.99,0.00,28.1,27.1,00.0,37.0,29.8,09.8,0000.0,0014.56,0004.75,0003.45
2022-05-01 07:08:00,,0826.5,4.99,0.00,28.1,27.1,00.0,37.0,29.8,09.7,0000.0,0014.92,0004.78,0003.44
2022-05-01 07:09:00,,0826.5,5.01,0.00,28.1,27.1,00.0,37.0,29.8,09.7,0000.0,0014.89,0004.82,0003.44
2022-05-01 07:10:00,,0826.5,5.00,0.00,28.1,27.1,00.0,37.0,29.8,09.8,0000.0,0015.34,0004.82,0003.45
2022-05-01 07:11:00,,0826.5,4.99,0.00,28.0,27.1,00.0,37.0,29.8,09.8,0000.0,0015.07,0004.83,0003.45
2022-05-01 07:12:00,,0826.5,5.00,0.00,28.0,27.1,00.0,37.0,29.8,09.8,0000.0,0015.53,0004.79,0003.45
2022-05-01 07:13:00,,0826.5,5.00,0.00,28.1,27.1,00.0,37.0,29.8,09.8,0000.0,0016.32,0004.72,0003.45
2022-05-01 07:14:00,,0826.5,4.99,0.00,28.0,27.1,00.0,37.0,29.8,09.8,0000.0,0017.90,0004.70,0003.45
2022-05-01 07:15:00,,0826.4,5.01,0.00,28.0,27.1,00.0,37.0,29.8,09.8,0000.0,0018.05,0004.73,0003.45
2022-05-01 07:16:00,,0826.4,5.01,0.00,28.1,27.0,00.0,37.0,29.8,09.8,0000.0,0017.36,0004.81,0003.45
2022-05-01 07:17:00,,0826.4,4.99,0.00,28.1,27.0,00.0,37.0,29.8,09.8,0000.0,0016.88,0004.88,0003.47
2022-05-01 07:18:00,,0826.4,5.00,0.00,28.1,27.0,00.0,37.0,29.8,09.8,0000.0,0016.83,0004.93,0003.49
2022-05-01 07:19:00,,0826.4,5.01,0.00,28.0,27.0,00.0,37.0,29.8,09.8,0000.0,0016.48,0004.94,0003.49
2022-05-01 07:20:00,,0826.4,5.00,0.00,28.1,27.1,00.0,37.0,29.8,09.8,0000.0,0016.90,0004.97,0003.50
2022-05-01 07:21:00,,0826.3,4.99,0.00,28.0,27.0,00.0,37.0,29.8,09.8,0000.0,0016.64,0005.06,0003.51
2022-05-01 07:22:00,,0826.3,4.99,0.00,28.0,27.0,00.0,37.0,29.8,09.8,0000.0,0016.09,0005.04,0003.52
2022-05-01 07:23:00,,0826.3,5.01,0.00,28.0,27.0,00.0,37.0,29.8,09.8,0000.0,0016.33,0005.08,0003.53
2022-05-01 07:24:00,,0826.2,4.99,0.00,28.0,27.0,00.0,37.0,29.8,09.8,0000.0,0016.22,0005.10,0003.53
2022-05-01 07:25:00,,0826.2,4.99,0.00,28.0,27.0,00.0,36.9,29.8,09.8,0000.0,0014.40,0005.14,0003.54
2022-05-01 07:26:00,,0826.3,4.99,0.00,28.0,27.0,00.0,36.9,29.8,09.8,0000.0,0014.12,0005.13,0003.55
2022-05-01 07:27:00,,0826.2,5.02,0.00,28.0,27.0,00.0,36.9,29.8,09.8,0000.0,0014.84,0005.16,0003.55
2022-05-01 07:28:00,,0826.3,5.00,0.00,28.0,27.0,00.0,36.9,29.8,09.9,0000.0,0016.00,0005.11,0003.55
2022-05-01 07:29:00,,0826.3,4.99,0.00,28.0,27.0,00.0,36.9,29.8,09.9,0000.0,0016.75,0005.11,0003.54
2022-05-01 07:30:00,,0826.2,5.00,0.00,28.0,27.0,00.0,36.9,29.8,09.9,0000.0,0017.75,0005.13,0003.54
2022-05-01 07:31:00,,0826.2,5.01,0.00,28.0,27.0,00.0,36.9,29.8,09.9,0000.0,0017.79,0005.14,0003.55
2022-05-01 07:32:00,,0826.2,4.99,0.00,28.0,27.0,00.0,36.9,29.8,09.9,0000.0,0017.04,0005.13,0003.55
2022-05-01 07:33:00,,0826.2,4.99,0.00,28.0,27.0,00.0,36.9,29.8,09.9,0000.0,0016.86,0005.06,0003.54
2022-05-01 07:34:00,,0826.2,5.01,0.00,28.0,27.0,00.0,36.9,29.8,09.8,0000.0,0016.42,0005.08,0003.54
2022-05-01 07:35:00,,0826.2,4.99,0.00,28.0,27.0,00.0,36.9,29.8,09.9,0000.0,0015.68,0005.19,0003.55
2022-05-01 07:36:00,,0826.2,5.00,0.00,28.0,27.0,00.0,36.9,29.8,09.9,0000.0,0015.92,0005.21,0003.56
2022-05-01 07:37:00,,0826.2,5.02,0.00,28.0,27.0,00.0,36.9,29.7,09.9,0000.0,0016.91,0005.11,0003.55
2022-05-01 07:38:00,,0826.2,4.99,0.00,28.0,27.0,00.0,36.9,29.7,09.9,0000.0,0016.04,0005.01,0003.54
2022-05-01 07:39:00,,0826.3,4.99,0.00,28.0,27.0,00.0,36.9,29.8,09.9,0000.0,0015.10,0005.05,0003.55
2022-05-01 07:40:00,,0826.2,5.01,0.00,28.0,27.0,00.0,36.9,29.7,09.9,0000.0,0015.13,0005.06,0003.55
2022-05-01 07:41:00,,0826.3,5.01,0.00,28.0,27.0,00.0,36.9,29.7,10.0,0000.0,0015.35,0005.03,0003.56
2022-05-01 07:42:00,,0826.3,4.99,0.00,28.0,27.0,00.0,36.9,29.7,10.0,0000.0,0015.32,0005.02,0003.56
2022-05-01 07:43:00,,0826.3,5.00,0.00,28.0,27.0,00.0,36.9,29.7,10.0,0000.0,0015.11,0005.06,0003.57
2022-05-01 07:44:00,,0826.3,4.99,0.00,28.0,26.9,00.0,36.9,29.7,10.1,0000.0,0015.07,0005.02,0003.58
2022-05-01 07:45:00,,0826.3,5.00,0.00,28.0,27.0,00.0,36.9,29.7,10.1,0000.0,0015.35,0005.00,0003.58
2022-05-01 07:46:00,,0826.3,5.00,0.00,28.0,26.9,00.0,36.9,29.7,10.1,0000.0,0015.06,0004.92,0003.57
2022-05-01 07:47:00,,0826.3,4.99,0.00,27.9,26.9,00.0,36.9,29.7,10.2,0000.0,0015.31,0004.96,0003.57
2022-05-01 07:48:00,,0826.3,5.00,0.00,27.9,26.8,00.0,36.9,29.6,10.2,0000.0,0013.89,0005.05,0003.59
2022-05-01 07:49:00,,0826.4,5.01,0.00,27.8,26.8,00.0,36.9,29.6,10.3,0000.0,0014.60,0005.16,0003.61
2022-05-01 07:50:00,,0826.4,4.99,0.00,27.8,26.7,00.0,36.8,29.5,10.3,0000.0,0015.15,0005.15,0003.61
2022-05-01 07:51:00,,0826.4,5.00,0.00,27.8,26.7,00.0,36.8,29.5,10.3,0000.0,0015.54,0005.14,0003.60
2022-05-01 07:52:00,,0826.4,5.00,0.00,27.8,26.7,00.0,36.8,29.5,10.3,0000.0,0014.29,0005.16,0003.61
2022-05-01 07:53:00,,0826.4,5.00,0.00,27.8,26.8,00.0,36.8,29.5,10.3,0000.0,0013.78,0005.13,0003.61
2022-05-01 07:54:00,,0826.5,5.02,0.00,27.8,26.8,00.0,36.8,29.6,10.2,0000.0,0014.21,0005.07,0003.61
2022-05-01 07:55:00,,0826.4,4.99,0.00,27.8,26.8,00.0,36.8,29.6,10.3,0000.0,0015.02,0005.09,0003.61
2022-05-01 07:56:00,,0826.4,4.99,0.00,27.8,26.8,00.0,36.8,29.6,10.2,0000.0,0014.91,0005.12,0003.62
2022-05-01 07:57:00,,0826.4,5.01,0.00,27.8,26.8,00.0,36.8,29.5,10.3,0000.0,0014.86,0005.14,0003.63
2022-05-01 07:58:00,,0826.4,5.00,0.00,27.8,26.8,00.0,36.8,29.5,10.3,0000.0,0014.78,0005.17,0003.64
2022-05-01 07:59:00,,0826.3,4.99,0.00,27.8,26.7,00.0,36.8,29.5,10.4,0000.0,0016.07,0005.14,0003.63
